Regional Weather Roundup
Issued by NWS

Home | Current Version | Previous Version | Graphics & Text | Print | Product List | Glossary On
Versions: 1 2 3 4 5 6 7 8 9 10 11 12 13 14 15 16 17 18 19 20 21 22 23 24 25 26 27
000
ASUS45 KCYS 252010
RWRWY

WYOMING REGIONAL WEATHER ROUNDUP
NATIONAL WEATHER SERVICE CHEYENNE WY
200 PM MDT SAT OCT 25 2014

NOTE:  "FAIR" INDICATES FEW OR NO CLOUDS BELOW 12,000 FEET
WITH NO SIGNIFICANT WEATHER AND/OR OBSTRUCTIONS TO VISIBILITY.

WYZ001-252100-
YELLOWSTONE NATIONAL PARK

CITY           SKY/WX    TMP DP  RH WIND       PRES   REMARKS
LK YELLOWSTONE   N/A     60  22  23 MISG      30.13
W YELLOWSTONE  NOT AVBL

$$
WYZ002>013-054>058-071-098>099-252100-
NORTHERN WYOMING

CITY           SKY/WX    TMP DP  RH WIND       PRES   REMARKS
JACKSON        SUNNY     66  27  22 S7        30.07F
CODY           SUNNY     70  36  28 N9        29.94
GREYBULL       SUNNY     71  29  21 VRB3      29.91F
WORLAND        SUNNY     78  27  15 S9        29.92F
SHERIDAN       SUNNY     66  35  31 N8        29.92F
BUFFALO        SUNNY     79  19  10 SE17      29.97F
GILLETTE       SUNNY     73  34  23 S20       29.99F
HULETT         FAIR      72  30  21 S8        30.02
NEWCASTLE      FAIR      68  30  24 S6        30.05

$$
WYZ014>020-022>026-101>103-252100-
CENTRAL WYOMING

CITY           SKY/WX    TMP DP  RH WIND       PRES   REMARKS
BIG PINEY      SUNNY     67  23  19 S14G20    30.14F
PINEDALE       CLEAR     64  23  20 S14       30.16
DUBOIS         FAIR      66  12  12 W21G29    30.07F
LANDER         SUNNY     66  26  22 N5        30.02F
RIVERTON       SUNNY     66  25  21 NE7       30.03F
CASPER         SUNNY     76  26  15 SW20G28   30.06F
DOUGLAS        SUNNY     79  24  13 VRB6      30.06F

$$
WYZ021-027>030-104>119-252100-
SOUTHERN WYOMING

CITY           SKY/WX    TMP DP  RH WIND       PRES   REMARKS
EVANSTON       SUNNY     71  22  15 SW25G37   30.13F
KEMMERER       CLEAR     66  23  19 S10G17    30.16F
FORT BRIDGER   FAIR      65  27  23 NE6       30.17F
ROCK SPRINGS   SUNNY     70  22  16 SW9       30.13F
RAWLINS        SUNNY     71  21  15 SW20G37   30.18F
SARATOGA       FAIR      70  23  17 SW20G26   30.23F
LARAMIE        SUNNY     71  15  11 SW18G26   30.21F
CHEYENNE       SUNNY     73  18  12 S18G25    30.17F
TORRINGTON     SUNNY     76  34  21 SE8       30.04F
PINE BLUFFS    FAIR      79  23  12 SW10      30.11F

$$



USA.gov is the U.S. government's official web portal to all federal, state and local government web resources and services.